sat.trackr.live / text

‹ back to catalog

LEMUR-2-KADI

NORAD 43184 · 2018-014E

PAYLOAD ACTIVE UNKNOWN

§ Identity

Operator
Country
US
Launch date
2018-02-01
Launch site
VOSTO
Launch vehicle
Mass (kg)
RCS (m²)

Purposes: earth_obs

External: N2YO · Heavens-Above · Gunter

§ Orbital elements

Epoch: 2026-06-04T00:01:13.493568Z

Period
88.37 min
Inclination
97.4308°
Eccentricity
0.0010752
Mean motion
16.29437538 rev/d
Perigee alt
187.0 km
Apogee alt
201.1 km
Semi-major
6,572.2 km
B*
1.3547e-3
RAAN
86.5413°
Arg perigee
218.5886°
Mean anomaly
141.4640°
Rev number
45,900

§ Raw data

LEMUR-2-KADI1 43184U 18014E   26155.00085062  .05670531  25233-5  13547-2 0  99932 43184  97.4308  86.5413 0010752 218.5886 141.4640 16.29437538459009

JSON: /api/v1/satellites/43184 · /tle

For live sub-satellite position, see the globe view (requires WebGL).

§ Visibility from observer

Set your observer location to see the next 7 days of passes ≥ 10°. The values pass through the URL so the page stays shareable.

No JS? Fill the form by hand. The geolocation button needs JavaScript.

§ Radio — SatNOGS DB

ModeDescriptionDownlinkUplink
BPSK Mode U 400.551 MHz

1 transmitter · refreshed weekly from db.satnogs.org